Location: Asheville, NC
(35.6000°N, 82.5500°W)
Time: 01:30:45
(UTC-05:00)

Vanguard 1 - Pass Details

Date: 16 February 2018
Orbit: 650 x 3833 km, 34.2° (Epoch: 23 February)

Event Time Altitude Azimuth Distance (km) Brightness Sun altitude
Rises 19:40:55 0° 274° (W) 3,878 14.8 -18.4°
Reaches altitude 10° 19:44:04 10° 273° (W) 2,592 13.5 -19.1°
Maximum altitude 19:49:38 69° 190° (S) 752 9.4 -20.2°
Enters shadow 19:51:02 43° 123° (ESE) 947 9.6 -20.5°
Drops below altitude 10° 19:53:59 10° 107° (ESE) 2,038 - -21.1°
Sets 19:56:12 0° 105° (ESE) 2,971 - -21.5°
